TimeMDT,TemperatureF,Dew PointF,Humidity,Sea Level PressureIn,VisibilityMPH,Wind Direction,Wind SpeedMPH,Gust SpeedMPH,PrecipitationIn,Events,Conditions,WindDirDegrees,DateUTC
12:53 AM,50.0,36.0,59,29.92,6.0,WNW,9.2,-,N/A,,Haze,300,2013-10-08 06:53:00
1:53 AM,48.0,36.0,63,29.92,7.0,NW,6.9,-,N/A,,Clear,310,2013-10-08 07:53:00
2:53 AM,45.0,36.0,71,29.95,6.0,WNW,6.9,-,N/A,,Haze,300,2013-10-08 08:53:00
3:53 AM,43.0,35.1,74,29.96,7.0,NNW,6.9,-,N/A,,Clear,330,2013-10-08 09:53:00
4:53 AM,43.0,34.0,71,29.96,7.0,NW,8.1,-,N/A,,Clear,320,2013-10-08 10:53:00
5:53 AM,41.0,34.0,76,29.98,6.0,WNW,3.5,-,N/A,,Haze,300,2013-10-08 11:53:00
6:53 AM,39.0,33.1,79,30.00,10.0,Calm,Calm,-,N/A,,Clear,0,2013-10-08 12:53:00
7:53 AM,39.9,34.0,79,30.01,10.0,Calm,Calm,-,N/A,,Mostly Cloudy,0,2013-10-08 13:53:00
8:53 AM,43.0,35.1,74,30.01,10.0,Calm,Calm,-,N/A,,Mostly Cloudy,0,2013-10-08 14:53:00
9:53 AM,46.9,34.0,61,30.01,10.0,NNW,4.6,-,N/A,,Clear,330,2013-10-08 15:53:00
10:53 AM,48.9,33.1,54,30.01,10.0,NW,10.4,-,N/A,,Clear,320,2013-10-08 16:53:00
11:53 AM,51.1,34.0,52,29.99,10.0,NW,5.8,-,N/A,,Scattered Clouds,320,2013-10-08 17:53:00
12:53 PM,53.1,33.1,47,29.97,10.0,NW,11.5,18.4,N/A,,Partly Cloudy,320,2013-10-08 18:53:00
1:53 PM,55.9,32.0,40,29.95,10.0,NW,13.8,-,N/A,,Scattered Clouds,310,2013-10-08 19:53:00
2:53 PM,55.9,32.0,40,29.92,10.0,WNW,10.4,-,N/A,,Mostly Cloudy,290,2013-10-08 20:53:00
3:14 PM,55.4,32.0,41,29.93,10.0,WNW,6.9,-,N/A,,Partly Cloudy,290,2013-10-08 21:14:00
3:53 PM,55.0,30.9,40,29.93,10.0,WNW,10.4,16.1,N/A,,Clear,300,2013-10-08 21:53:00
4:53 PM,55.9,30.9,39,29.90,10.0,NW,8.1,-,N/A,,Clear,320,2013-10-08 22:53:00
5:53 PM,54.0,30.9,41,29.91,10.0,North,8.1,-,N/A,,Clear,360,2013-10-08 23:53:00
6:53 PM,54.0,30.9,41,29.90,10.0,NNW,4.6,-,N/A,,Mostly Cloudy,340,2013-10-09 00:53:00
7:53 PM,52.0,32.0,47,29.90,10.0,North,6.9,-,N/A,,Scattered Clouds,350,2013-10-09 01:53:00
8:53 PM,51.1,32.0,48,29.89,10.0,NW,6.9,-,N/A,,Clear,310,2013-10-09 02:53:00
9:53 PM,48.9,35.1,59,29.88,10.0,WNW,10.4,-,N/A,,Partly Cloudy,300,2013-10-09 03:53:00
10:53 PM,48.0,35.1,61,29.87,10.0,WNW,8.1,-,N/A,,Clear,300,2013-10-09 04:53:00
11:53 PM,46.9,36.0,66,29.87,10.0,WNW,11.5,-,N/A,,Clear,300,2013-10-09 05:53:00